Location: Chuathbaluk
(61.5726°N, 159.2454°W)
Time: 11:51:04
(UTC+00:00)

CUBEBUG 2 - Visible Passes

Search period start: 16 January 2021 00:00
Search period end: 26 January 2021 00:00
Orbit: 585 x 698 km, 97.7° (Epoch: 15 January)

Date Brightness Start Highest point End Pass type
(mag) Time Alt. Az. Time Alt. Az. Time Alt. Az.
16 Jan ? 03:42:34 10° W 03:43:25 10° WNW 03:44:15 10° WNW visible
16 Jan ? 13:41:13 10° NE 13:42:04 13° NE 13:42:04 13° NE visible
16 Jan ? 15:17:15 10° NNE 15:19:41 32° NNE 15:19:41 32° NNE visible
16 Jan ? 16:54:20 10° N 16:57:18 24° NW 16:57:18 24° NW visible
17 Jan ? 14:04:48 10° NNE 14:06:22 18° NE 14:06:22 18° NE visible
17 Jan ? 15:41:13 10° NNE 15:43:58 36° N 15:43:58 36° N visible
17 Jan ? 17:18:29 10° N 17:21:36 19° NW 17:21:36 19° NW visible
18 Jan ? 02:50:31 10° SW 02:53:55 23° W 02:57:24 10° NW visible
18 Jan ? 14:28:33 10° NNE 14:30:39 25° NE 14:30:39 25° NE visible
18 Jan ? 16:05:13 10° N 16:08:16 36° NNW 16:08:16 36° NNW visible
18 Jan ? 17:42:43 10° N 17:45:13 15° NW 17:45:54 14° NW visible
19 Jan ? 03:15:29 10° WSW 03:18:08 16° W 03:20:51 10° NW visible
19 Jan ? 13:16:57 10° NE 13:17:20 11° NE 13:17:20 11° NE visible
19 Jan ? 14:52:23 10° NNE 14:54:57 33° NE 14:54:57 33° NE visible
19 Jan ? 16:29:15 10° N 16:32:34 31° NW 16:32:34 31° NW visible
19 Jan ? 18:07:11 10° NNW 18:08:47 12° NW 18:10:11 10° NW visible
20 Jan ? 03:41:19 10° W 03:42:27 11° WNW 03:43:34 10° WNW visible
20 Jan ? 13:40:14 10° NE 13:41:38 16° NE 13:41:38 16° NE visible
20 Jan ? 15:16:17 10° NNE 15:19:15 41° NNE 15:19:15 41° NNE visible
20 Jan ? 16:53:20 10° N 16:56:52 25° NW 16:56:52 25° NW visible
21 Jan ? 14:03:49 10° NNE 14:05:56 22° NE 14:05:56 22° NE visible
21 Jan ? 15:40:14 10° NNE 15:43:33 46° N 15:43:33 46° N visible
21 Jan ? 17:17:28 10° N 17:20:42 19° NW 17:21:11 19° NW visible
22 Jan ? 14:27:34 10° NNE 14:30:14 30° NE 14:30:14 30° NE visible
22 Jan ? 16:04:13 10° N 16:07:51 42° NNW 16:07:51 42° NNW visible
22 Jan ? 17:41:42 10° N 17:44:18 15° NW 17:45:29 14° WNW visible
23 Jan ? 03:14:25 10° WSW 03:17:10 16° W 03:19:59 10° NW visible
23 Jan ? 13:15:57 10° NE 13:16:56 13° ENE 13:16:56 13° ENE visible
23 Jan ? 14:51:24 10° NNE 14:54:33 41° NE 14:54:33 41° NE visible
23 Jan ? 16:28:15 10° N 16:32:10 34° NW 16:32:10 34° NW visible
23 Jan ? 18:06:06 10° NNW 18:07:51 12° NW 18:09:38 10° WNW visible
24 Jan ? 03:40:07 10° W 03:41:28 11° WNW 03:42:51 10° WNW visible
24 Jan ? 13:39:15 10° NE 13:41:14 18° ENE 13:41:14 18° ENE visible
24 Jan ? 15:15:18 10° NNE 15:18:51 53° NNE 15:18:51 53° NNE visible
24 Jan ? 16:52:20 10° N 16:56:07 26° NW 16:56:29 25° WNW visible
25 Jan ? 14:02:50 10° NNE 14:05:33 25° ENE 14:05:33 25° ENE visible
25 Jan ? 15:39:15 10° NNE 15:43:10 57° NNW 15:43:10 57° NNW visible
25 Jan ? 17:16:28 10° N 17:19:47 20° NW 17:20:47 18° WNW visible
